Вернуться в каталог

SL-12 R/B(2)

АктивенMEO
NORAD 37140·ROCKET BODY·🇷🇺 Russia

Запущен Sep 2, 2010 с Baikonur Cosmodrome

Loading…

Ближайшие Пролёты (ближайшие 24 часа)

TLE

УстаревающийSource: Space-Track

Эпоха: Sep 1, 2026, 08:23 UTC

1 37140U 10041D   26244.34939086  .00000053  00000-0  00000+0 0  9998
2 37140  63.9161 186.8719 0041625 194.6085 346.4944  2.13453877124678

Отслеживайте SL-12 R/B(2) в реальном времени с AllMySat

Download on the App Store